Youngstown, OH

2:17 AM EDT on March 27, 2017 (GMT -0400)
Youngstown-Warren Regional

Weather History for KYNG - May, 2012

Change the Weather History Date:

Wednesday, May 16, 2012

  Actual Average Record
Temperature  
Mean Temperature 56 °F 58 °F  
Max Temperature 73 °F 69 °F 89 °F (1962)
Min Temperature 38 °F 47 °F 30 °F (1956)
Degree Days  
Heating Degree Days 9 8  
Month to date heating degree days 72 157  
Since 1 July heating degree days 5017 6184  
Cooling Degree Days 0 1  
Month to date cooling degree days 23 9  
Year to date cooling degree days 35 18  
Growing Degree Days 8 (Base 50)    
Moisture  
Dew Point 45 °F    
Average Humidity 65    
Maximum Humidity 86    
Minimum Humidity 43    
Precipitation  
Precipitation T in 0.12 in 0.90 in (1990)
Month to date precipitation 2.99 1.87  
Year to date precipitation 14.68 12.87  
Snow  
Snow 0.00 in 0.00 in - ()
Month to date snowfall 0.0 0.0  
Since 1 July snowfall 56.5 62.7  
Snow Depth 0.00 in    
Sea Level Pressure  
Sea Level Pressure 29.97 in    
Wind  
Wind Speed 11 mph (WNW)    
Max Wind Speed 22 mph    
Max Gust Speed 28 mph    
Visibility 10 miles    
Events Rain    
T = Trace of Precipitation, MM = Missing Value Source: NWS Daily Summary

Daily Weather History Graph

Daily Weather History Graph

Search for Another Location

Airport or City:

Trip Planner

Search our weather history database for the weather conditions in past years. The results will help you decide how hot, cold, wet, or windy it might be!

Date:

Astronomy

May. 16, 2012 Rise Set
Actual Time 6:02 AM EDT 8:35 PM EDT
Civil Twilight 5:31 AM EDT 9:07 PM EDT
Nautical Twilight 4:51 AM EDT 9:47 PM EDT
Astronomical Twilight 4:07 AM EDT 10:31 PM EDT
Moon 3:34 AM EDT (5/16) 4:48 PM EDT (5/16)
Length of Visible Light 15h 36m
Length of Day
14h 33m
Waning Crescent, 16% of the Moon is Illuminated
May 16
Waning Crescent
May 20
New
May 28
First Quarter
Jun 4
Full
Jun 11
Last Quarter

Hourly Weather History & Observations

Time (EDT) Temp. Windchill Dew Point Humidity Pressure Visibility Wind Dir Wind Speed Gust Speed Precip Events Conditions
12:51 AM 62.1 °F - 45.0 °F 53% 29.91 in 10.0 mi South 5.8 mph - N/A   Partly Cloudy
1:51 AM 61.0 °F - 46.9 °F 60% 29.91 in 10.0 mi SSW 6.9 mph - N/A   Scattered Clouds
2:51 AM 60.1 °F - 48.0 °F 64% 29.89 in 10.0 mi SSW 5.8 mph - N/A   Scattered Clouds
3:51 AM 60.1 °F - 48.9 °F 67% 29.88 in 10.0 mi South 8.1 mph - N/A   Scattered Clouds
4:51 AM 57.9 °F - 50.0 °F 75% 29.87 in 10.0 mi SSW 6.9 mph - N/A   Scattered Clouds
5:51 AM 55.0 °F - 50.0 °F 83% 29.89 in 10.0 mi West 4.6 mph - N/A   Partly Cloudy
6:51 AM 55.9 °F - 51.1 °F 84% 29.89 in 8.0 mi SSW 5.8 mph - N/A   Scattered Clouds
7:51 AM 60.1 °F - 53.1 °F 78% 29.90 in 10.0 mi SSW 8.1 mph - N/A   Partly Cloudy
8:51 AM 64.9 °F - 53.1 °F 65% 29.89 in 10.0 mi SSW 8.1 mph - N/A   Partly Cloudy
9:51 AM 69.1 °F - 51.1 °F 53% 29.90 in 10.0 mi West 16.1 mph 20.7 mph N/A   Partly Cloudy
10:51 AM 72.0 °F - 48.0 °F 43% 29.90 in 10.0 mi West 11.5 mph 18.4 mph N/A   Scattered Clouds
11:51 AM 66.0 °F - 52.0 °F 60% 29.93 in 10.0 mi NNW 17.3 mph - 0.00 in Rain Light Rain
12:51 PM 62.1 °F - 51.1 °F 67% 29.96 in 8.0 mi NNW 13.8 mph - 0.00 in Rain Light Rain
1:46 PM 60.8 °F - 53.6 °F 77% 29.98 in 10.0 mi NNW 16.1 mph - N/A   Overcast
1:51 PM 60.1 °F - 53.1 °F 78% 29.98 in 10.0 mi NNW 11.5 mph - 0.00 in   Overcast
2:51 PM 57.9 °F - 50.0 °F 75% 29.99 in 9.0 mi NNW 17.3 mph 23.0 mph N/A   Overcast
3:38 PM 57.2 °F - 46.4 °F 67% 30.01 in 10.0 mi NNW 17.3 mph - N/A   Overcast
3:51 PM 59.0 °F - 45.0 °F 60% 30.00 in 10.0 mi NW 20.7 mph - N/A   Overcast
4:51 PM 60.1 °F - 39.9 °F 47% 30.01 in 10.0 mi North 19.6 mph - N/A   Scattered Clouds
5:51 PM 57.9 °F - 36.0 °F 44% 30.03 in 10.0 mi NNW 16.1 mph - N/A   Scattered Clouds
6:51 PM 55.0 °F - 34.0 °F 45% 30.05 in 10.0 mi North 16.1 mph 26.5 mph N/A   Scattered Clouds
7:51 PM 52.0 °F - 33.1 °F 49% 30.07 in 10.0 mi NNW 12.7 mph - N/A   Scattered Clouds
8:51 PM 48.0 °F - 33.1 °F 56% 30.08 in 10.0 mi North 8.1 mph - N/A   Partly Cloudy
9:51 PM 46.9 °F - 32.0 °F 56% 30.09 in 10.0 mi North 4.6 mph - N/A   Partly Cloudy
10:51 PM 44.1 °F 40.1 °F 30.9 °F 60% 30.11 in 10.0 mi North 6.9 mph - N/A   Partly Cloudy
11:51 PM 45.0 °F 41.8 °F 30.9 °F 58% 30.12 in 10.0 mi North 5.8 mph - N/A   Partly Cloudy